Flag for U.S.A. Weather past 2 weeks in Lowell, Massachusetts, U.S.A.

Now
68 °F

Partly sunny.


Feels Like: 68 °F
Forecast: 39 / 72 °F
Wind: 15 mph from South

Location: Hanscom Field

Current Time: Sep 20, 2014 at 2:40:19 PM

Latest Report: Sep 20, 2014 at 1:56 PM


Visibility: 10 mi

Pressure: 30.22 "Hg

Humidity: 59%

Dew point: 53 °F

Location of LowellLocation

Historic Weather in Lowell — Graph

°F

Lowell temperature yesterday

Maximum temperature yesterday: 57 °F (at 1:56 PM)
Minimum temperature yesterday: 35 °F (at 10:56 PM)
Average temperature yesterday: 47 °F

Past Weeks' High & Low Weather Summary

 TemperatureHumidityPressure
High89 °F (Sep 6, 1:56 PM)100% (Sep 9, 5:56 AM)30.46 "Hg (Sep 9, 5:56 AM)
Low33 °F (Sep 20, 3:56 AM)32% (Sep 7, 3:56 PM)29.77 "Hg (Sep 6, 4:56 PM)
Average59 °F77%30.14 "Hg
* Reported Sep 5 8:56 AM — Sep 20 8:56 AM, Lowell, Weather by CustomWeather, © 2014

Note: Actual official high and low records may vary slightly from our data, if they occured in-between our weather recording intervals... More about our weather records

Advertising

Lowell weather history for previous 24 hours

 ConditionsComfort  
Time TempWeatherWind HumidityBarometerVisibility
8:56 AM
Sep 20
50 °FPartly sunny.No wind83%30.36 "Hg10 mi
7:56 AM40 °FOvercast.3 mph93%30.37 "Hg10 mi
6:56 AM33 °FClear.No wind92%30.40 "Hg10 mi
5:56 AM33 °FClear.No wind96%30.40 "Hg10 mi
4:56 AM34 °FClear.No wind97%30.42 "Hg10 mi
3:56 AM33 °FClear.No wind96%30.41 "Hg10 mi
2:56 AM35 °FClear.No wind92%30.42 "Hg10 mi
1:56 AM35 °FClear.No wind92%30.43 "Hg10 mi
12:56 AM34 °FClear.5 mph92%30.43 "Hg10 mi
11:56 PM
Sep 19
36 °FClear.3 mph92%30.44 "Hg10 mi
10:56 PM35 °FClear.No wind92%30.46 "Hg10 mi
9:56 PM38 °FClear.No wind90%30.46 "Hg10 mi
8:56 PM44 °FClear.No wind68%30.46 "Hg10 mi
7:56 PM47 °FClear.7 mph59%30.45 "Hg10 mi
6:56 PM49 °FSunny.7 mph52%30.44 "Hg10 mi
5:56 PM52 °FSunny.9 mph49%30.43 "Hg10 mi
4:56 PM54 °FSunny.10 mph49%30.43 "Hg10 mi
3:56 PM55 °FSunny.N/A47%30.42 "Hg10 mi
2:56 PM57 °FSunny.7 mph41%30.42 "Hg10 mi
Weather by CustomWeather, © 2014

See weather overviewHow to use our weather pages